Showing default

GLOBALSTAR M104, 100328

Orbit data source: Space-Track

GLOBALSTAR M104, 100328 is a payload satellite owned by Globalstar (US) in LEO that was launched on Sun, 16 Aug 2026 UTC launched from the Air Force Eastern Test Range (AFETR). Payload-class satellites include a variety of spacecraft equipped with specific instruments for various scientific and technological missions. These include communications satellites like Starlink; space stations such as the ISS; scientific satellites like the Hubble; Earth observation satellites from companies like Planet Labs, Umbra, and HawkEye 360; GPS; miniature CubeSats for education and research; and military/defense satellites.

Loading next visibility...
Identifier
100328, 2026-185D
Orbit
LEO
Country
Flag of USUS
Related business
Manufacturer
MDARM/RLABLB
Mission
Operational spacecraft
Bus & Motor
C-3, AOCS
Mass
850 kg wet, ~800 kg dry
Launch date (UTC)
2026-08-16 (3 weeks ago)
Launch vehicle
Unknown
Launch site
Air Force Eastern Test Range (AFETR)
Object type
Payload
Rocket body
Debris
Shape & HBR
TRAP CYL + 2 PAN, 7.0 m
Radar Cross Section
Large (>1 m²)

Expand to show TLE details & history
Last TLE update: 1 week ago

TLE from 1 week ago
0 GLOBALSTAR M104
1 A0328U 26185D   26242.51864300  .00000222  00000-0  79039-4 0  9996
2 A0328  51.9954 175.8010 0009138 278.7403  81.2518 14.63831485  2114
Epoch: 2026-08-30T12:26Z
TLE epoch observation values (Epoch: 2026-08-30T12:26:50.755Z)
Latitude
-0.00005°
Longitude
10.37641°
Altitude
680.606 km
Speed
7.518 km/s
True Right ascension
11h 43m 12s
True Declination
0° 00' 00"
Sunlit
Object was in daylight at epoch
Visualization orbit readout
Latitude
Unknown
Longitude
Unknown
Altitude
Unknown
Speed
Unknown
Apparent Right ascension
Unknown
Apparent Declination
Unknown
Sunlit
N/A
Visualization observer readout
Local Sidereal Time
11:06:37
Azimuth
Unknown
Elevation
Unknown
Doppler factor
Unknown
Orbital elements
Apogee altitude
687.713 km
Perigee altitude
674.811 km
Semi-major axis
7,059.399 km
Eccentricity
0.00091
Inclination
51.9954°
RAAN
175.801°
Arg. of periapsis
278.7403°
True anomaly
81.35531°
Mean anomaly
81.2518°
Eccentric anomaly
81.30355°
Mean motion
3.65925 °/min
Orbital period
98.38 mins
BSTAR
0.000079039
Loading maneuver chart data...
Computing Atmospheric mass density...
Loading historical data...
Loading historical data...
Loading historical data...
Loading historical data...
Loading historical data...
Loading historical data...
Loading historical data...

Documentation

Showing up to 5 results
|